Flag for Canada Weather past 2 weeks in London, Ontario, Canada

Now
61 °F

Passing clouds.


Feels Like: 61 °F
Forecast: 54 / 80 °F
Wind: 8 mph from Southwest

Location: London Weather Station

Current Time: May 28, 2015 at 1:05:06 AM

Latest Report: May 28, 2015 at 12:00 AM


Visibility: 10 mi

Pressure: 30.03 "Hg

Humidity: 100%

Dew point: 61 °F

Location of LondonLocation

Historic Weather in London — Graph

°F

London temperature yesterday

Maximum temperature yesterday: 75 °F (at 12:00 PM)
Minimum temperature yesterday: 61 °F (at 11:00 PM)
Average temperature yesterday: 68 °F

Past Weeks' High & Low Weather Summary

 TemperatureHumidityPressure
High82 °F (May 18, 4:00 PM)100% (May 16, 4:00 AM)30.50 "Hg (May 16, 4:00 AM)
Low30 °F (May 23, 6:00 AM)24% (May 20, 7:00 PM)29.90 "Hg (May 21, 8:00 PM)
Average59 °F67%30.12 "Hg
* Reported Midnight between May 12 and May 13 — Midnight between May 27 and May 28, London, Weather by CustomWeather, © 2015

Note: Actual official high and low records may vary slightly from our data, if they occured in-between our weather recording intervals... More about our weather records

Advertising

London weather history for previous 24 hours

 ConditionsComfort  
Time TempWeatherWind HumidityBarometerVisibility
12:00 AM
Thu, May 28
61 °FPassing clouds.8 mph100%30.03 "Hg10 mi
11:00 PM
Wed, May 27
61 °FOvercast.7 mph100%30.03 "Hg15 mi
10:00 PM63 °FOvercast.9 mph100%30.01 "Hg15 mi
9:00 PM64 °FPartly sunny.9 mph94%29.98 "Hg15 mi
8:00 PM66 °FBroken clouds.10 mph88%29.98 "Hg15 mi
7:00 PM66 °FMostly cloudy.12 mph88%29.98 "Hg15 mi
6:00 PM66 °FSprinkles. Cloudy.9 mph88%30.00 "Hg12 mi
5:00 PM66 °FMostly cloudy.17 mph83%29.98 "Hg12 mi
4:03 PM70 °FThunderstorms. Fog.20 mph83%29.98 "Hg4 mi
3:53 PM73 °FSprinkles. Partly sunny.26 mph69%29.96 "Hg15 mi
3:00 PM75 °FPartly sunny.24 mph69%29.96 "Hg15 mi
2:00 PM75 °FPartly sunny.22 mph74%29.98 "Hg15 mi
1:00 PM73 °FPartly sunny.20 mph78%29.99 "Hg15 mi
12:00 PM75 °FPartly sunny.14 mph74%29.98 "Hg15 mi
11:00 AM73 °FBroken clouds.16 mph78%29.98 "Hg15 mi
10:00 AM72 °FBroken clouds.15 mph78%29.98 "Hg15 mi
9:00 AM70 °FPartly sunny.13 mph88%29.98 "Hg8 mi
8:00 AM66 °FBroken clouds.12 mph94%29.98 "Hg8 mi
7:00 AM64 °FFog.10 mph100%29.97 "Hg4 mi
6:00 AM64 °FMostly cloudy.8 mph100%29.95 "Hg8 mi
5:00 AM66 °FLow clouds.8 mph94%29.93 "Hg15 mi
4:00 AM64 °FMostly cloudy.9 mph100%29.93 "Hg15 mi
3:00 AM64 °FPassing clouds.14 mph94%29.92 "Hg15 mi
2:00 AM66 °FMostly cloudy.13 mph88%29.93 "Hg15 mi
1:00 AM66 °FPassing clouds.12 mph94%29.95 "Hg15 mi
Weather by CustomWeather, © 2015

See weather overviewHow to use our weather pages